Find Starlink 11139

NORAD ID: 60402 Int'l Des: 2024-141 Owner: SPXS Country: US Constellation: starlink operational
LEOCIRCULAR

Live-Position

3D-Globus wird geladen...

Über Starlink 11139

Beschreibung wird geladen...

Nächste Überflüge

Passes for default location (London). Set your location on the main map for personalized predictions.

Höhenverlauf

Loading altitude history...

Zweizeiliger Elementsatz

1 60402U 24141E 26122.40325122 -.00001832 00000-0 -10274-4 0 9990
2 60402 53.1592 181.1518 0000943 84.1426 275.9699 15.69699417100189
Epoch: 2. Mai 2026 • Age: 20 hours

Aktueller Status

Höhe 364.1 km
Geschwindigkeit 7.70 km/s
Subsatellitenpunkt 46.16°N, 5.57°W
Startdatum 10. Aug. 2024
Alter 1.7 years
Typ internet

Technische Details

Klassifizierung Payload
Masse 960.00 kg
Trockenmasse 910.00 kg
Gesamtmasse 960.00 kg
Länge 0.30 m
Durchmesser 4.10 m
Spannweite 29.00 m
Form Box + pan
Hersteller SPXS
Bus-Typ Starlink V2MD
Phasenstatus In Orbit
Besitzer/Staat SPXS/US

Most Searched